Location: Clermont
(50.2608°N, 4.3172°E)
Time: 08:58:39
(UTC+00:00)

Cosmos 1862 Rocket - Pass Details

Date: 13 August 2020
Orbit: 603 x 635 km, 82.5° (Epoch: 21 September)

Event Time Altitude Azimuth Distance (km) Brightness Sun altitude
Rises 19:39:23 0° 354° (N) 2,938 7.6 -5.7°
Reaches altitude 10° 19:41:45 10° 2° (N) 2,021 6.6 -6.1°
Maximum altitude 19:46:01 42° 74° (ENE) 893 4.1 -6.7°
Drops below altitude 10° 19:50:13 10° 146° (SE) 1,987 5.6 -7.2°
Enters shadow 19:50:58 - 149° (SSE) 2,275 5.9 -7.3°
